| time (UTC) | temp C | wind direction | speed KPH | gust KPH | rain 1hr cm | rain 24hr cm | rain mn cm | humidity % | barometer mb |
| 20260502160541 | 7 | 257 | 14.5 | 22.5 | 0.00 | 0.00 | 0.00 | 60 | 1015.7 |
| 20260502152036 | 7 | 265 | 11.3 | 25.7 | 0.00 | 0.00 | 0.00 | 55 | 1016.0 |
| 20260502151522 | 7 | 300 | 12.9 | 25.7 | 0.00 | 0.00 | 0.00 | 58 | 1016.0 |
| 20260502151030 | 6 | 251 | 9.7 | 16.1 | 0.00 | 0.00 | 0.00 | 58 | 1015.9 |
| 20260502150538 | 6 | 285 | 6.4 | 14.5 | 0.00 | 0.00 | 0.00 | 60 | 1015.9 |
| 20260502130537 | 5 | 354 | 4.8 | 14.5 | 0.00 | 0.00 | 0.00 | 69 | 1016.0 |
| 20260502123533 | 4 | 269 | 6.4 | 11.3 | 0.00 | 0.00 | 0.00 | 73 | 1016.2 |
| 20260502123024 | 3 | 290 | 3.2 | 9.7 | 0.00 | 0.00 | 0.00 | 74 | 1016.2 |
| 20260502122526 | 3 | 283 | 4.8 | 16.1 | 0.00 | 0.00 | 0.00 | 75 | 1016.2 |
| 20260502122036 | 3 | 4 | 4.8 | 16.1 | 0.00 | 0.00 | 0.00 | 75 | 1016.1 |
| 20260502121057 | 3 | 56 | 3.2 | 12.9 | 0.00 | 0.00 | 0.00 | 76 | 1016.1 |
| 20260502120550 | 3 | 330 | 4.8 | 12.9 | 0.00 | 0.00 | 0.00 | 77 | 1016.1 |
| 20260502120128 | 3 | 6 | 6.4 | 17.7 | 0.00 | 0.00 | 0.00 | 77 | 1016.1 |
| 20260502115525 | 3 | 310 | 4.8 | 17.7 | 0.00 | 0.00 | 0.00 | 77 | 1016.1 |
| 20260502115039 | 3 | 18 | 8.0 | 16.1 | 0.00 | 0.00 | 0.00 | 77 | 1016.1 |
| 20260502114526 | 3 | 331 | 3.2 | 17.7 | 0.00 | 0.00 | 0.00 | 77 | 1016.0 |
| 20260502114047 | 3 | 331 | 8.0 | 17.7 | 0.00 | 0.00 | 0.00 | 78 | 1016.0 |
| 20260502113535 | 3 | 328 | 8.0 | 12.9 | 0.00 | 0.00 | 0.00 | 78 | 1016.0 |
| 20260502113027 | 3 | 314 | 3.2 | 14.5 | 0.00 | 0.00 | 0.00 | 79 | 1016.0 |
| 20260502112557 | 3 | 291 | 4.8 | 14.5 | 0.00 | 0.00 | 0.00 | 79 | 1016.0 |
| 20260502112026 | 3 | 9 | 3.2 | 17.7 | 0.00 | 0.00 | 0.00 | 79 | 1015.9 |
| 20260502111536 | 3 | 1 | 8.0 | 17.7 | 0.00 | 0.00 | 0.00 | 80 | 1015.8 |
| 20260502111027 | 3 | 342 | 4.8 | 12.9 | 0.00 | 0.00 | 0.00 | 80 | 1015.8 |
| 20260502110523 | 3 | 348 | 6.4 | 14.5 | 0.00 | 0.00 | 0.00 | 80 | 1015.8 |
| 20260502110034 | 3 | 340 | 6.4 | 16.1 | 0.00 | 0.00 | 0.00 | 80 | 1015.8 |
| 20260502105521 | 3 | 316 | 4.8 | 14.5 | 0.00 | 0.00 | 0.00 | 80 | 1015.6 |
| 20260502105030 | 3 | 334 | 6.4 | 14.5 | 0.00 | 0.00 | 0.00 | 80 | 1015.6 |
| 20260502104538 | 3 | 340 | 4.8 | 12.9 | 0.00 | 0.00 | 0.00 | 80 | 1015.5 |
| 20260502104031 | 3 | 306 | 4.8 | 14.5 | 0.00 | 0.00 | 0.00 | 80 | 1015.5 |
| 20260502103604 | 3 | 351 | 4.8 | 14.5 | 0.00 | 0.00 | 0.00 | 80 | 1015.5 |
| 20260502103026 | 3 | 1 | 4.8 | 12.9 | 0.00 | 0.00 | 0.00 | 80 | 1015.6 |
| 20260502102535 | 3 | 333 | 4.8 | 11.3 | 0.00 | 0.00 | 0.00 | 80 | 1015.5 |
| 20260502102038 | 3 | 346 | 6.4 | 11.3 | 0.00 | 0.00 | 0.00 | 80 | 1015.5 |
| 20260502101526 | 3 | 331 | 4.8 | 12.9 | 0.00 | 0.00 | 0.00 | 80 | 1015.5 |
| 20260502101036 | 3 | 327 | 3.2 | 12.9 | 0.00 | 0.00 | 0.00 | 80 | 1015.5 |
| 20260502100545 | 3 | 321 | 3.2 | 17.7 | 0.00 | 0.00 | 0.00 | 79 | 1015.5 |
| 20260502091043 | 3 | 296 | 6.4 | 14.5 | 0.00 | 0.00 | 0.00 | 76 | 1015.4 |
| 20260502090531 | 3 | 360 | 6.4 | 14.5 | 0.00 | 0.00 | 0.00 | 75 | 1015.3 |
| 20260502071534 | 4 | 321 | 4.8 | 16.1 | 0.00 | 0.00 | 0.00 | 70 | 1015.0 |
| 20260502071027 | 4 | 300 | 8.0 | 16.1 | 0.00 | 0.00 | 0.00 | 69 | 1015.1 |
| 20260502070537 | 4 | 305 | 4.8 | 12.9 | 0.00 | 0.00 | 0.00 | 69 | 1015.0 |
| 20260502070027 | 4 | 331 | 6.4 | 14.5 | 0.00 | 0.00 | 0.00 | 69 | 1015.1 |
| 20260502065534 | 4 | 314 | 4.8 | 14.5 | 0.00 | 0.00 | 0.00 | 69 | 1015.1 |
| 20260502065027 | 4 | 314 | 4.8 | 11.3 | 0.00 | 0.00 | 0.00 | 70 | 1015.2 |
| 20260502064531 | 5 | 317 | 4.8 | 14.5 | 0.00 | 0.00 | 0.00 | 70 | 1015.3 |
| 20260502064025 | 5 | 301 | 6.4 | 14.5 | 0.00 | 0.00 | 0.00 | 70 | 1015.3 |
| 20260502063558 | 5 | 98 | 4.8 | 14.5 | 0.00 | 0.00 | 0.00 | 70 | 1015.3 |
| 20260502063027 | 5 | 352 | 8.0 | 14.5 | 0.00 | 0.00 | 0.00 | 69 | 1015.3 |
| 20260502062531 | 5 | 324 | 6.4 | 14.5 | 0.00 | 0.00 | 0.00 | 69 | 1015.3 |
| 20260502062112 | 5 | 21 | 4.8 | 14.5 | 0.00 | 0.00 | 0.00 | 69 | 1015.3 |
| 20260502061030 | 5 | 331 | 4.8 | 12.9 | 0.00 | 0.00 | 0.00 | 67 | 1015.3 |
| 20260502060540 | 5 | 324 | 6.4 | 12.9 | 0.00 | 0.00 | 0.00 | 67 | 1015.3 |
| 20260502060041 | 5 | 4 | 8.0 | 12.9 | 0.00 | 0.00 | 0.00 | 67 | 1015.2 |
| 20260502055524 | 5 | 350 | 6.4 | 14.5 | 0.00 | 0.00 | 0.00 | 67 | 1015.2 |
| 20260502055036 | 5 | 356 | 6.4 | 12.9 | 0.00 | 0.00 | 0.00 | 68 | 1015.3 |
| 20260502054527 | 5 | 320 | 6.4 | 14.5 | 0.00 | 0.00 | 0.00 | 69 | 1015.3 |
| 20260502054033 | 5 | 1 | 4.8 | 14.5 | 0.00 | 0.00 | 0.00 | 68 | 1015.3 |
| 20260502053543 | 5 | 353 | 6.4 | 14.5 | 0.00 | 0.00 | 0.00 | 66 | 1015.3 |
| 20260502053036 | 5 | 340 | 8.0 | 14.5 | 0.00 | 0.00 | 0.00 | 67 | 1015.2 |
| 20260502052522 | 5 | 15 | 4.8 | 12.9 | 0.00 | 0.00 | 0.00 | 68 | 1015.1 |
| 20260502052150 | 5 | 351 | 4.8 | 17.7 | 0.00 | 0.00 | 0.00 | 68 | 1015.1 |
| 20260502051523 | 5 | 28 | 4.8 | 17.7 | 0.00 | 0.00 | 0.00 | 66 | 1015.2 |
| 20260502051039 | 5 | 1 | 8.0 | 19.3 | 0.00 | 0.00 | 0.00 | 66 | 1015.2 |
| 20260502050528 | 5 | 15 | 6.4 | 17.7 | 0.00 | 0.00 | 0.00 | 66 | 1015.2 |
| 20260502050035 | 5 | 347 | 8.0 | 17.7 | 0.00 | 0.00 | 0.00 | 65 | 1015.2 |
| 20260502045522 | 5 | 346 | 6.4 | 16.1 | 0.00 | 0.00 | 0.00 | 65 | 1015.1 |
| 20260502045032 | 5 | 355 | 6.4 | 14.5 | 0.00 | 0.00 | 0.00 | 65 | 1015.1 |
| 20260502044601 | 5 | 15 | 4.8 | 17.7 | 0.00 | 0.00 | 0.00 | 64 | 1015.0 |
| 20260502044032 | 5 | 346 | 9.7 | 17.7 | 0.00 | 0.00 | 0.00 | 64 | 1015.0 |
| 20260502043541 | 5 | 350 | 6.4 | 16.1 | 0.00 | 0.00 | 0.00 | 65 | 1015.0 |
| 20260502043030 | 5 | 18 | 8.0 | 16.1 | 0.00 | 0.00 | 0.00 | 65 | 1015.0 |
| 20260502042535 | 5 | 331 | 4.8 | 12.9 | 0.00 | 0.00 | 0.00 | 65 | 1015.0 |
| 20260502042114 | 5 | 334 | 6.4 | 16.1 | 0.00 | 0.00 | 0.00 | 64 | 1015.1 |
| 20260502041528 | 5 | 303 | 6.4 | 16.1 | 0.00 | 0.00 | 0.00 | 65 | 1015.0 |
| 20260502041038 | 5 | 311 | 8.0 | 16.1 | 0.00 | 0.00 | 0.00 | 65 | 1014.9 |
| 20260502040553 | 5 | 304 | 4.8 | 16.1 | 0.00 | 0.00 | 0.00 | 66 | 1014.9 |
| 20260502040055 | 5 | 323 | 6.4 | 16.1 | 0.00 | 0.00 | 0.00 | 67 | 1014.9 |
| 20260502035528 | 5 | 355 | 4.8 | 14.5 | 0.00 | 0.00 | 0.00 | 69 | 1014.9 |
| 20260502035040 | 5 | 322 | 4.8 | 11.3 | 0.00 | 0.00 | 0.00 | 70 | 1014.9 |
| 20260502034037 | 5 | 336 | 3.2 | 14.5 | 0.00 | 0.00 | 0.00 | 71 | 1015.0 |
| 20260502033525 | 5 | 346 | 8.0 | 14.5 | 0.00 | 0.00 | 0.00 | 71 | 1014.9 |
| 20260502033040 | 5 | 348 | 6.4 | 12.9 | 0.00 | 0.00 | 0.00 | 71 | 1014.9 |
| 20260502032521 | 5 | 336 | 4.8 | 12.9 | 0.00 | 0.00 | 0.00 | 71 | 1014.8 |
| 20260502032101 | 5 | 330 | 8.0 | 16.1 | 0.00 | 0.00 | 0.00 | 71 | 1014.8 |
| 20260502031528 | 5 | 16 | 4.8 | 16.1 | 0.00 | 0.00 | 0.00 | 71 | 1014.8 |
| 20260502031040 | 5 | 314 | 6.4 | 14.5 | 0.00 | 0.00 | 0.00 | 72 | 1014.8 |
| 20260502030525 | 5 | 33 | 6.4 | 14.5 | 0.00 | 0.00 | 0.00 | 72 | 1014.9 |
| 20260502030040 | 5 | 322 | 4.8 | 11.3 | 0.00 | 0.00 | 0.00 | 73 | 1014.9 |
| 20260502025531 | 5 | 15 | 4.8 | 14.5 | 0.00 | 0.00 | 0.00 | 74 | 1014.9 |
| 20260502025104 | 5 | 352 | 3.2 | 8.0 | 0.00 | 0.00 | 0.00 | 75 | 1014.9 |
| 20260502024533 | 5 | 89 | 1.6 | 4.8 | 0.00 | 0.00 | 0.00 | 75 | 1014.9 |
| 20260502024051 | 5 | 1 | 3.2 | 6.4 | 0.00 | 0.00 | 0.00 | 76 | 1014.9 |
| 20260502023540 | 5 | 11 | 0.0 | 6.4 | 0.00 | 0.00 | 0.00 | 77 | 1014.9 |
| 20260502023027 | 5 | 1 | 1.6 | 6.4 | 0.00 | 0.00 | 0.00 | 76 | 1014.9 |
| 20260502022540 | 5 | 28 | 3.2 | 6.4 | 0.00 | 0.00 | 0.00 | 76 | 1015.0 |
| 20260502022033 | 5 | 35 | 1.6 | 6.4 | 0.00 | 0.00 | 0.00 | 76 | 1015.1 |
| 20260502021536 | 5 | 1 | 4.8 | 6.4 | 0.00 | 0.00 | 0.00 | 76 | 1015.0 |
| 20260502021029 | 5 | 13 | 3.2 | 9.7 | 0.00 | 0.00 | 0.00 | 75 | 1015.0 |
| 20260502020539 | 5 | 13 | 3.2 | 9.7 | 0.00 | 0.00 | 0.00 | 75 | 1015.0 |
| 20260502020029 | 5 | 25 | 3.2 | 8.0 | 0.00 | 0.00 | 0.00 | 75 | 1014.9 |
| 20260502015534 | 5 | 30 | 4.8 | 9.7 | 0.00 | 0.00 | 0.00 | 75 | 1014.9 |
| 20260502015045 | 5 | 44 | 4.8 | 11.3 | 0.00 | 0.00 | 0.00 | 75 | 1014.9 |
| 20260502014531 | 5 | 23 | 3.2 | 11.3 | 0.00 | 0.00 | 0.00 | 75 | 1014.8 |
| 20260502014048 | 5 | 39 | 4.8 | 12.9 | 0.00 | 0.00 | 0.00 | 74 | 1014.8 |
| 20260502013531 | 5 | 39 | 4.8 | 12.9 | 0.00 | 0.00 | 0.00 | 74 | 1014.7 |
| 20260502013025 | 5 | 82 | 6.4 | 11.3 | 0.00 | 0.00 | 0.00 | 74 | 1014.7 |
| 20260502012532 | 5 | 66 | 4.8 | 9.7 | 0.00 | 0.00 | 0.00 | 74 | 1014.7 |
| 20260502012039 | 5 | 32 | 4.8 | 14.5 | 0.00 | 0.00 | 0.00 | 73 | 1014.6 |
| 20260502011528 | 5 | 63 | 4.8 | 14.5 | 0.00 | 0.00 | 0.00 | 73 | 1014.6 |
| 20260502011030 | 5 | 34 | 4.8 | 12.9 | 0.00 | 0.00 | 0.00 | 73 | 1014.7 |
| 20260502010540 | 5 | 28 | 4.8 | 12.9 | 0.00 | 0.00 | 0.00 | 73 | 1014.6 |
| 20260502010029 | 5 | 354 | 6.4 | 11.3 | 0.00 | 0.00 | 0.00 | 74 | 1014.6 |
| 20260502005538 | 5 | 37 | 6.4 | 12.9 | 0.00 | 0.00 | 0.00 | 73 | 1014.5 |
| 20260502005029 | 5 | 44 | 6.4 | 12.9 | 0.00 | 0.00 | 0.00 | 73 | 1014.4 |
| 20260502004533 | 5 | 49 | 6.4 | 12.9 | 0.00 | 0.00 | 0.00 | 73 | 1014.4 |
| 20260502004026 | 5 | 35 | 6.4 | 12.9 | 0.00 | 0.00 | 0.00 | 74 | 1014.2 |
| 20260502003536 | 5 | 84 | 6.4 | 11.3 | 0.00 | 0.00 | 0.00 | 74 | 1014.2 |
| 20260502003043 | 5 | 63 | 4.8 | 11.3 | 0.00 | 0.00 | 0.00 | 74 | 1014.2 |
| 20260502002557 | 5 | 46 | 6.4 | 9.7 | 0.00 | 0.00 | 0.00 | 74 | 1014.2 |
| 20260502002051 | 5 | 70 | 4.8 | 9.7 | 0.00 | 0.00 | 0.00 | 74 | 1014.1 |
| 20260502001534 | 5 | 53 | 4.8 | 12.9 | 0.00 | 0.00 | 0.00 | 74 | 1014.1 |
| 20260502001027 | 5 | 103 | 6.4 | 12.9 | 0.00 | 0.00 | 0.00 | 74 | 1014.0 |
| 20260502000537 | 5 | 72 | 4.8 | 9.7 | 0.00 | 0.00 | 0.00 | 74 | 1014.0 |
| 20260502000030 | 5 | 100 | 6.4 | 11.3 | 0.00 | 0.00 | 0.00 | 73 | 1014.0 |
| 20260501235534 | 5 | 56 | 4.8 | 12.9 | 0.00 | 0.00 | 0.00 | 73 | 1013.9 |
| 20260501235028 | 5 | 61 | 4.8 | 12.9 | 0.00 | 0.00 | 0.00 | 72 | 1013.9 |
| 20260501234551 | 5 | 46 | 6.4 | 17.7 | 0.00 | 0.00 | 0.00 | 73 | 1013.9 |
| 20260501234052 | 5 | 60 | 4.8 | 17.7 | 0.00 | 0.00 | 0.00 | 73 | 1013.9 |
| 20260501233602 | 5 | 46 | 4.8 | 14.5 | 0.00 | 0.00 | 0.00 | 73 | 1013.9 |
| 20260501233033 | 5 | 89 | 8.0 | 12.9 | 0.00 | 0.00 | 0.00 | 73 | 1013.8 |
| 20260501232537 | 5 | 60 | 3.2 | 11.3 | 0.00 | 0.00 | 0.00 | 73 | 1013.9 |
| 20260501232027 | 5 | 56 | 6.4 | 14.5 | 0.00 | 0.00 | 0.00 | 73 | 1013.8 |
| 20260501231535 | 5 | 79 | 8.0 | 14.5 | 0.00 | 0.00 | 0.00 | 74 | 1013.8 |
| 20260501231049 | 5 | 60 | 6.4 | 14.5 | 0.00 | 0.00 | 0.00 | 73 | 1013.8 |
| 20260501230559 | 5 | 46 | 6.4 | 14.5 | 0.00 | 0.00 | 0.00 | 73 | 1013.7 |
| 20260501230054 | 5 | 42 | 8.0 | 14.5 | 0.00 | 0.00 | 0.00 | 73 | 1013.8 |
| 20260501225539 | 5 | 72 | 8.0 | 16.1 | 0.00 | 0.00 | 0.00 | 73 | 1013.7 |
| 20260501225024 | 5 | 30 | 8.0 | 16.1 | 0.00 | 0.00 | 0.00 | 74 | 1013.8 |
| 20260501224532 | 5 | 94 | 8.0 | 17.7 | 0.00 | 0.00 | 0.00 | 75 | 1013.7 |
| 20260501224043 | 5 | 42 | 6.4 | 17.7 | 0.00 | 0.00 | 0.00 | 76 | 1013.7 |
| 20260501223528 | 5 | 59 | 8.0 | 17.7 | 0.00 | 0.00 | 0.00 | 75 | 1013.6 |
| 20260501223038 | 5 | 58 | 8.0 | 14.5 | 0.00 | 0.00 | 0.00 | 74 | 1013.6 |
| 20260501222552 | 5 | 79 | 8.0 | 14.5 | 0.00 | 0.00 | 0.00 | 74 | 1013.6 |
| 20260501222055 | 5 | 82 | 6.4 | 14.5 | 0.00 | 0.00 | 0.00 | 75 | 1013.5 |
| 20260501221540 | 5 | 42 | 6.4 | 14.5 | 0.00 | 0.00 | 0.00 | 74 | 1013.5 |
| 20260501221029 | 5 | 58 | 8.0 | 12.9 | 0.00 | 0.00 | 0.00 | 74 | 1013.5 |
| 20260501220531 | 5 | 49 | 8.0 | 12.9 | 0.00 | 0.00 | 0.00 | 74 | 1013.5 |
| 20260501220043 | 5 | 21 | 6.4 | 12.9 | 0.00 | 0.00 | 0.00 | 75 | 1013.4 |
| 20260501215533 | 5 | 34 | 6.4 | 16.1 | 0.00 | 0.00 | 0.00 | 76 | 1013.4 |
| 20260501215029 | 5 | 56 | 8.0 | 16.1 | 0.00 | 0.00 | 0.00 | 75 | 1013.4 |
| 20260501214556 | 6 | 9 | 8.0 | 16.1 | 0.00 | 0.00 | 0.00 | 74 | 1013.3 |
| 20260501214027 | 6 | 54 | 6.4 | 12.9 | 0.00 | 0.00 | 0.00 | 72 | 1013.3 |
| 20260501213536 | 6 | 56 | 8.0 | 12.9 | 0.00 | 0.00 | 0.00 | 72 | 1013.2 |
| 20260501213034 | 6 | 98 | 3.2 | 14.5 | 0.00 | 0.00 | 0.00 | 70 | 1013.1 |
| 20260501212548 | 6 | 44 | 6.4 | 9.7 | 0.00 | 0.00 | 0.00 | 70 | 1013.1 |
| 20260501212040 | 6 | 37 | 6.4 | 12.9 | 0.00 | 0.00 | 0.00 | 69 | 1013.1 |
| 20260501211525 | 6 | 89 | 8.0 | 12.9 | 0.00 | 0.00 | 0.00 | 70 | 1013.1 |
| 20260501211103 | 6 | 79 | 6.4 | 12.9 | 0.00 | 0.00 | 0.00 | 70 | 1013.1 |
| 20260501210528 | 6 | 51 | 4.8 | 9.7 | 0.00 | 0.00 | 0.00 | 69 | 1013.1 |
| 20260501210041 | 6 | 32 | 4.8 | 9.7 | 0.00 | 0.00 | 0.00 | 69 | 1013.0 |
| 20260501205544 | 6 | 37 | 4.8 | 9.7 | 0.00 | 0.00 | 0.00 | 70 | 1013.0 |
| 20260501205033 | 6 | 1 | 3.2 | 9.7 | 0.00 | 0.00 | 0.00 | 70 | 1013.0 |
| 20260501204549 | 6 | 28 | 4.8 | 9.7 | 0.00 | 0.00 | 0.00 | 69 | 1012.9 |
| 20260501204059 | 6 | 32 | 3.2 | 9.7 | 0.00 | 0.00 | 0.00 | 70 | 1012.9 |
| 20260501203550 | 6 | 61 | 3.2 | 9.7 | 0.00 | 0.00 | 0.00 | 70 | 1012.9 |
| 20260501203044 | 6 | 89 | 4.8 | 9.7 | 0.00 | 0.00 | 0.00 | 70 | 1012.9 |
| 20260501202554 | 6 | 18 | 3.2 | 8.0 | 0.00 | 0.00 | 0.00 | 69 | 1012.9 |
| 20260501202031 | 6 | 113 | 4.8 | 8.0 | 0.00 | 0.00 | 0.00 | 71 | 1012.9 |
| 20260501201540 | 6 | 70 | 4.8 | 11.3 | 0.00 | 0.00 | 0.00 | 70 | 1013.0 |
| 20260501201030 | 6 | 28 | 3.2 | 11.3 | 0.00 | 0.00 | 0.00 | 70 | 1013.0 |
| 20260501200537 | 6 | 63 | 6.4 | 14.5 | 0.00 | 0.00 | 0.00 | 71 | 1013.0 |
| 20260501200030 | 6 | 66 | 8.0 | 14.5 | 0.00 | 0.00 | 0.00 | 70 | 1012.9 |
| 20260501195539 | 6 | 6 | 6.4 | 14.5 | 0.00 | 0.00 | 0.00 | 72 | 1012.8 |
| 20260501195045 | 6 | 39 | 8.0 | 16.1 | 0.00 | 0.00 | 0.00 | 72 | 1012.9 |
| 20260501194559 | 6 | 44 | 6.4 | 14.5 | 0.00 | 0.00 | 0.00 | 71 | 1012.8 |
| 20260501194029 | 7 | 40 | 8.0 | 16.1 | 0.00 | 0.00 | 0.00 | 73 | 1012.9 |
| 20260501193535 | 7 | 20 | 8.0 | 17.7 | 0.00 | 0.00 | 0.00 | 70 | 1012.8 |
| 20260501193027 | 7 | 39 | 8.0 | 17.7 | 0.00 | 0.00 | 0.00 | 72 | 1012.7 |
| 20260501192536 | 7 | 89 | 6.4 | 11.3 | 0.00 | 0.00 | 0.00 | 65 | 1012.8 |
| 20260501192045 | 7 | 295 | 1.6 | 12.9 | 0.00 | 0.00 | 0.00 | 61 | 1012.7 |
| 20260501191530 | 7 | 269 | 8.0 | 12.9 | 0.00 | 0.00 | 0.00 | 60 | 1012.6 |
| 20260501191049 | 7 | 234 | 9.7 | 12.9 | 0.00 | 0.00 | 0.00 | 69 | 1012.6 |
| 20260501190537 | 7 | 227 | 8.0 | 12.9 | 0.00 | 0.00 | 0.00 | 65 | 1012.5 |
| 20260501190113 | 7 | 237 | 8.0 | 11.3 | 0.00 | 0.00 | 0.00 | 63 | 1012.5 |
| 20260501185528 | 7 | 251 | 6.4 | 11.3 | 0.00 | 0.00 | 0.00 | 66 | 1012.4 |
| 20260501185040 | 7 | 221 | 8.0 | 11.3 | 0.00 | 0.00 | 0.00 | 65 | 1012.5 |
| 20260501184530 | 7 | 212 | 8.0 | 11.3 | 0.00 | 0.00 | 0.00 | 67 | 1012.4 |
| 20260501184029 | 7 | 207 | 9.7 | 11.3 | 0.00 | 0.00 | 0.00 | 66 | 1012.5 |
| 20260501183548 | 7 | 222 | 8.0 | 14.5 | 0.00 | 0.00 | 0.00 | 63 | 1012.5 |
| 20260501183036 | 8 | 228 | 9.7 | 14.5 | 0.00 | 0.00 | 0.00 | 65 | 1012.5 |
| 20260501182544 | 7 | 223 | 11.3 | 12.9 | 0.00 | 0.00 | 0.00 | 67 | 1012.6 |
| 20260501182035 | 7 | 229 | 9.7 | 12.9 | 0.00 | 0.00 | 0.00 | 66 | 1012.6 |
| 20260501181549 | 7 | 215 | 3.2 | 9.7 | 0.00 | 0.00 | 0.00 | 65 | 1012.6 |
| 20260501181031 | 7 | 344 | 4.8 | 9.7 | 0.00 | 0.00 | 0.00 | 63 | 1012.6 |
| 20260501180540 | 7 | 89 | 4.8 | 9.7 | 0.00 | 0.00 | 0.00 | 64 | 1012.6 |
| 20260501180036 | 8 | 1 | 3.2 | 17.7 | 0.00 | 0.00 | 0.00 | 61 | 1012.7 |
| 20260501175526 | 8 | 44 | 8.0 | 17.7 | 0.00 | 0.00 | 0.00 | 66 | 1012.7 |
| 20260501175042 | 7 | 303 | 4.8 | 9.7 | 0.00 | 0.00 | 0.00 | 66 | 1012.7 |
| 20260501174532 | 8 | 75 | 4.8 | 11.3 | 0.00 | 0.00 | 0.00 | 67 | 1012.7 |
| 20260501174028 | 8 | 34 | 6.4 | 11.3 | 0.00 | 0.00 | 0.00 | 70 | 1012.8 |
| 20260501173532 | 7 | 49 | 4.8 | 11.3 | 0.00 | 0.00 | 0.00 | 65 | 1012.7 |
| 20260501173045 | 8 | 354 | 6.4 | 11.3 | 0.00 | 0.00 | 0.00 | 66 | 1012.7 |
| 20260501172531 | 7 | 337 | 3.2 | 11.3 | 0.00 | 0.00 | 0.00 | 66 | 1012.7 |
| 20260501172039 | 7 | 135 | 6.4 | 14.5 | 0.00 | 0.00 | 0.00 | 65 | 1012.8 |
| 20260501171533 | 8 | 11 | 8.0 | 14.5 | 0.00 | 0.00 | 0.00 | 69 | 1012.8 |
| 20260501171047 | 7 | 37 | 6.4 | 11.3 | 0.00 | 0.00 | 0.00 | 71 | 1012.8 |
| 20260501170556 | 7 | 46 | 6.4 | 12.9 | 0.00 | 0.00 | 0.00 | 70 | 1012.9 |
| 20260501170027 | 7 | 345 | 4.8 | 14.5 | 0.00 | 0.00 | 0.00 | 67 | 1012.9 |
| 20260501165535 | 7 | 16 | 8.0 | 17.7 | 0.00 | 0.00 | 0.00 | 68 | 1012.8 |
| 20260501165046 | 7 | 13 | 11.3 | 19.3 | 0.00 | 0.00 | 0.00 | 68 | 1012.9 |
| 20260501164532 | 7 | 6 | 6.4 | 12.9 | 0.00 | 0.00 | 0.00 | 68 | 1012.9 |
| 20260501164059 | 7 | 344 | 8.0 | 12.9 | 0.00 | 0.00 | 0.00 | 65 | 1013.0 |
| 20260501163525 | 7 | 356 | 6.4 | 14.5 | 0.00 | 0.00 | 0.00 | 67 | 1013.0 |
| 20260501163040 | 7 | 30 | 8.0 | 14.5 | 0.00 | 0.00 | 0.00 | 68 | 1013.0 |
| 20260501162527 | 7 | 314 | 9.7 | 17.7 | 0.00 | 0.00 | 0.00 | 69 | 1013.0 |
| 20260501162102 | 7 | 33 | 6.4 | 17.7 | 0.00 | 0.00 | 0.00 | 71 | 1013.0 |
| 20260501161528 | 7 | 4 | 4.8 | 17.7 | 0.00 | 0.00 | 0.00 | 73 | 1013.0 |
| 20260501161041 | 7 | 338 | 6.4 | 17.7 | 0.00 | 0.00 | 0.00 | 71 | 1013.0 |